Bellingham, WA
on Thursday, January 24, 2013

Thursday
Previous Day Next Day
Daily Summary
 ActualAverageRecord
Temperature
Mean Temperature °F 40°F  
Max Temperature 46°F 47°F 55°F (1953)
Min Temperature 39°F 33°F 4°F (1950)
Degree Days
Heating Degree Days 22 25  
Month to date heating degree days 623  
Cooling Degree Days 0 0  
Month to date cooling degree days 0  
Year to date cooling degree days 0  
Moisture
Dew Point 37°F   
Average Humidity 80    
Maximum Humidity 89    
Minimum Humidity 71    
Precipitation
Precipitation 0.01 in 0.15 in 2.46 in (1984)
Month to date precipitation 3.69  
Year to date precipitation 3.69  
Wind
Wind Speed 8 mph   
Max Wind Speed 16 mph   
Max Gust Speed 26 mph   
Visibility 10 miles   
Events Rain   

Key: T is trace of precipitation, MM is missing value
Source: NWS Daily Summary
Time(PST)TemperatureDew PointHumidity Pressure Visibility Wind DirectionWind SpeedGust SpeedPrecipitationEvents Conditions
12:53 AM 43.0°F 37.9°F 82% 30.14 in 10.0 miles South 9.2 mph - N/A   Clear
1:53 AM 42.1°F 37.9°F 85% 30.17 in 10.0 miles SSE 6.9 mph - N/A   Clear
2:53 AM 42.1°F 37.9°F 85% 30.18 in 10.0 miles SSE 6.9 mph - N/A   Mostly Cloudy
3:53 AM 39.9°F 36.0°F 86% 30.19 in 10.0 miles South 3.5 mph - N/A   Mostly Cloudy
4:53 AM 41.0°F 37.0°F 86% 30.19 in 10.0 miles SSE 5.8 mph - N/A   Clear
5:53 AM 42.1°F 37.0°F 82% 30.22 in 10.0 miles SSE 8.1 mph - N/A   Overcast
6:53 AM 39.0°F 36.0°F 89% 30.21 in 10.0 miles South 4.6 mph - N/A   Partly Cloudy
7:53 AM 39.0°F 35.1°F 86% 30.21 in 10.0 miles SSE 9.2 mph - N/A   Scattered Clouds
8:53 AM 41.0°F 36.0°F 82% 30.19 in 10.0 miles SSE 4.6 mph - N/A   Scattered Clouds
9:53 AM 45.0°F 37.0°F 74% 30.19 in 10.0 miles SE 5.8 mph - N/A   Clear
10:53 AM 44.1°F 36.0°F 73% 30.20 in 10.0 miles East 8.1 mph - N/A   Clear
11:53 AM 45.0°F 36.0°F 71% 30.18 in 10.0 miles East 5.8 mph - N/A   Clear
12:53 PM 45.0°F 36.0°F 71% 30.13 in 10.0 miles ENE 4.6 mph - N/A   Mostly Cloudy
1:53 PM 44.1°F 37.0°F 76% 30.11 in 10.0 miles NNE 5.8 mph - N/A   Overcast
2:53 PM 44.1°F 36.0°F 73% 30.09 in 10.0 miles Calm Calm - N/A   Overcast
3:53 PM 43.0°F 37.0°F 80% 30.11 in 10.0 miles Calm Calm - N/A   Overcast
4:53 PM 43.0°F 37.0°F 80% 30.10 in 6.0 miles ESE 6.9 mph - 0.00 in Rain Light Rain
5:53 PM 44.1°F 37.0°F 76% 30.09 in 8.0 miles SE 10.4 mph - 0.00 in Rain Light Rain
6:31 PM 42.8°F 37.4°F 81% 30.05 in 10.0 miles East 12.7 mph - 0.01 in Rain Light Rain
6:53 PM 42.1°F 37.0°F 82% 30.08 in 9.0 miles SE 11.5 mph 16.1 mph 0.01 in Rain Light Rain
7:01 PM 42.8°F 37.4°F 81% 30.05 in 10.0 miles ESE 6.9 mph - 0.00 in Rain Light Rain
7:53 PM 43.0°F 37.9°F 82% 30.06 in 10.0 miles East 11.5 mph 19.6 mph 0.00 in Rain Light Rain
8:02 PM 44.6°F 37.4°F 76% 30.02 in 10.0 miles ESE 16.1 mph 23.0 mph 0.00 in Rain Light Rain
8:53 PM 44.1°F 37.9°F 79% 30.05 in 10.0 miles ESE 8.1 mph 17.3 mph 0.00 in   Overcast
9:53 PM 44.1°F 37.9°F 79% 30.03 in 10.0 miles ESE 12.7 mph 21.9 mph 0.00 in Rain Light Rain
10:53 PM 46.0°F 39.0°F 76% 30.02 in 10.0 miles ESE 10.4 mph - 0.00 in   Overcast
11:53 PM 46.9°F 39.9°F 77% 30.02 in 10.0 miles SE 16.1 mph 26.5 mph 0.00 in Rain Light Rain
Moon Phase
Jan. 24 Jan. 26 Feb. 03 Feb. 10 Feb. 17
Sunrise:07:49 AM (PST) Moon Rise:03:00 PM (PST)
Sunset:04:55 PM (PST) Moon Set:05:54 AM (PST)

Copyright © 2014 The Weather Underground, Inc.